GFSFLT2_700_rhum_051.txt.gz
RH
28 35 41 46 51 48 48 52 56 78 88 96 96 96 97 97 97 97 97 97 97 97 97 97 100 98 97
32 39 43 49 51 47 53 56 67 80 87 92 94 94 96 99 98 98 95 91 95 96 96 98 95 97 97
35 36 39 48 52 59 64 64 76 79 83 93 95 95 93 94 97 97 94 97 99 93 93 94 96 94 89
21 15 12 14 11 15 26 36 30 41 58 71 85 92 93 92 94 95 93 94 92 84 70 46 25 10 4
4 4 4 4 4 4 4 4 5 6 10 15 18 21 30 43 44 41 31 20 13 6 4 3 4 6 8
8 6 5 4 4 4 4 3 3 3 3 3 3 4 4 4 4 3 3 3 4 5 8 11 13 14 14
9 7 6 7 7 6 6 5 4 3 3 2 2 2 2 2 2 4 6 9 12 14 16 17 17 18 18
15 14 13 11 8 6 5 4 4 3 3 3 3 3 4 4 7 11 15 17 19 21 22 22 23 22 22
18 15 11 7 5 4 4 4 4 4 4 4 5 6 8 10 14 19 22 24 26 27 28 28 28 28 28
13 8 6 5 4 5 5 6 6 5 6 6 8 10 14 20 24 26 26 28 30 32 34 36 36 35 36
9 6 5 6 7 8 8 8 8 8 8 9 12 16 20 26 32 36 37 36 34 36 37 39 40 39 39
8 7 8 10 10 11 12 13 14 14 15 16 18 21 24 26 31 37 44 49 52 50 47 47 47 45 42
9 10 12 13 13 14 16 19 22 23 24 26 29 34 40 41 40 41 45 56 60 66 68 64 58 53 49
10 13 16 16 17 18 20 24 30 33 33 36 38 42 51 58 59 59 63 61 64 68 70 76 77 71 63
15 18 20 21 21 21 22 27 35 45 52 55 53 56 58 57 52 58 59 60 69 74 71 70 72 76 76
19 22 24 25 25 24 25 28 37 46 53 58 60 62 61 63 69 71 68 74 81 78 76 68 68 72 73
23 25 28 30 28 27 29 33 40 47 56 61 66 64 55 51 55 62 72 88 78 64 56 51 48 47 50

GFSFLT2_700_rhum_054.txt.gz
RH
24 28 32 34 38 48 43 39 42 46 55 59 72 85 96 98 98 97 96 97 95 97 92 94 95 95 97
27 32 25 20 28 34 40 50 54 47 60 65 70 82 87 94 96 99 100 98 99 98 99 100 96 94 95
33 19 14 10 9 7 7 9 13 18 14 25 48 71 85 90 90 89 92 95 98 95 94 95 95 92 93
4 5 5 5 5 5 4 4 4 4 4 5 8 13 20 54 77 85 89 91 92 92 92 90 88 82 66
7 8 8 7 6 5 6 7 7 7 5 4 4 4 4 6 7 11 18 23 27 26 20 13 8 5 5
12 12 12 11 9 10 11 11 11 8 8 5 4 3 3 2 2 2 2 2 2 2 3 3 4 6 7
19 19 20 18 17 16 13 12 10 8 5 4 4 3 3 3 3 2 2 3 4 6 8 9 11 13 14
24 22 21 19 15 11 8 6 5 4 4 3 3 3 4 4 4 5 6 8 11 13 15 17 17 18 18
23 22 19 13 9 7 5 5 5 5 5 5 5 5 5 6 7 8 11 14 18 20 22 22 23 23 24
21 18 13 10 8 7 7 7 7 7 7 7 7 8 8 10 12 13 15 18 21 23 26 28 29 30 31
18 14 12 10 10 10 10 9 9 9 10 10 12 13 14 16 17 16 18 22 25 30 34 37 38 38 39
13 12 10 11 12 12 12 12 12 12 12 14 18 19 22 26 28 30 32 37 40 42 40 38 41 42 43
12 11 11 12 14 15 15 16 15 15 15 16 19 24 30 35 40 40 38 48 54 56 57 58 57 53 52
16 15 14 16 17 19 20 20 19 18 18 18 21 26 34 38 40 44 51 48 50 53 56 62 70 72 70
24 21 19 20 22 23 23 24 22 22 23 23 26 28 35 39 41 51 52 48 60 68 64 62 70 71 71
34 26 24 25 26 27 27 27 24 24 26 27 29 33 36 39 46 58 52 52 63 66 69 68 69 75 72
42 33 32 30 30 30 30 30 26 25 28 30 34 37 35 34 38 45 49 62 62 73 81 74 61 57 56

GFSFLT2_700_rhum_057.txt.gz
RH
23 25 25 31 25 22 18 10 11 25 34 32 49 55 59 68 77 86 91 100 100 99 96 97 97 96 97
26 27 30 28 16 8 6 5 5 4 4 5 6 10 25 56 73 79 86 92 97 98 96 92 94 96 93
32 26 7 6 6 6 6 6 5 5 5 4 4 4 4 7 29 71 78 83 84 88 90 92 94 94 95
5 6 7 8 9 9 8 6 6 7 8 9 8 6 5 4 4 5 18 58 79 83 87 90 91 90 89
10 11 12 13 13 12 11 10 11 12 12 12 10 9 7 5 4 3 3 4 6 15 27 36 41 39 33
17 18 19 20 20 20 20 19 19 16 14 12 9 6 5 4 4 3 3 3 2 2 2 2 2 2 2
24 24 24 24 23 23 21 18 14 10 8 6 4 4 4 3 3 3 3 3 3 3 3 4 4 5 7
29 28 26 23 22 18 13 10 8 7 6 6 6 5 5 4 4 4 4 5 6 7 8 9 11 12 13
30 26 22 20 17 13 10 9 9 10 9 9 9 7 6 6 6 6 6 7 8 9 12 14 16 18 19
28 22 19 17 14 12 12 13 14 14 13 13 11 10 10 10 10 10 10 11 11 11 14 19 23 25 26
29 22 17 14 12 12 13 14 14 14 14 14 12 12 12 12 15 14 16 18 19 19 20 22 24 26 30
33 25 17 14 13 13 15 16 16 17 16 16 15 14 13 15 18 20 23 27 27 29 30 31 33 35 37
41 32 23 19 19 20 20 21 21 20 19 19 17 16 16 16 18 22 23 33 36 36 40 46 50 52 52
51 45 41 35 30 26 26 28 25 25 24 21 20 18 18 18 19 24 30 31 37 38 36 38 46 52 54
67 66 55 42 33 30 32 31 30 26 25 24 22 20 20 20 21 27 32 35 39 40 43 39 46 56 58
70 71 61 49 38 38 37 34 28 28 29 28 24 21 21 23 27 29 33 40 39 36 41 38 40 60 64
76 79 69 55 51 46 37 30 30 32 34 31 26 24 23 23 26 29 34 38 36 34 38 41 41 54 63

GFSFLT2_700_rhum_063.txt.gz
RH
22 23 23 23 22 24 23 23 8 6 6 6 6 6 6 5 5 5 6 15 37 63 78 88 85 98 98
29 30 26 26 29 27 16 6 6 8 8 8 7 7 9 10 11 9 7 9 20 58 69 96 100 100 100
34 32 30 25 15 6 7 9 11 11 12 11 11 12 14 15 14 12 10 8 8 12 33 58 76 83 86
11 7 6 8 9 11 14 16 18 18 20 20 20 20 19 17 14 12 10 8 6 5 6 10 20 43 72
12 13 15 16 18 20 22 24 24 24 24 23 20 18 15 11 8 6 5 4 4 3 3 3 3 4 6
18 21 23 25 27 27 27 27 26 24 22 19 14 12 10 10 10 10 9 7 5 4 4 4 3 3 3
26 28 30 31 31 30 29 26 24 22 18 15 13 14 16 17 17 16 14 12 10 8 6 5 4 4 4
32 34 34 34 32 30 26 24 22 18 16 17 18 22 24 25 25 24 23 20 17 14 11 9 7 6 6
39 40 41 40 35 29 26 22 21 18 16 18 21 26 30 30 30 28 25 24 21 18 16 14 12 10 10
40 41 44 45 41 34 27 22 19 16 16 21 25 29 32 33 30 30 28 29 26 22 20 18 16 14 13
40 43 46 48 46 40 30 24 20 18 21 26 32 34 34 33 34 33 31 30 28 25 22 19 17 15 13
41 44 46 55 59 53 44 37 32 30 31 34 36 40 40 36 33 32 34 32 28 21 20 18 16 15 15
42 45 47 59 63 64 63 55 44 41 42 41 45 49 45 35 35 34 33 30 25 22 21 19 18 18 18
43 46 51 63 67 66 67 67 62 55 50 52 55 50 38 37 38 37 38 32 26 24 23 22 20 20 22
42 44 54 67 72 69 71 73 67 57 58 60 53 41 37 40 40 40 40 35 32 26 24 23 25 27 28
41 44 57 74 78 74 75 78 76 66 61 53 43 40 43 42 44 44 42 37 31 27 26 25 27 33 35
45 45 61 74 83 78 75 75 72 63 56 50 50 51 54 53 47 46 43 37 32 29 30 30 30 38 40

GFSFLT2_700_rhum_066.txt.gz
RH
54 43 32 28 27 24 24 25 25 16 8 6 7 8 7 8 8 8 8 7 7 11 45 62 77 94 89
31 27 32 34 28 29 32 29 7 6 8 10 10 10 8 9 11 13 14 13 12 11 9 25 57 59 82
30 33 34 31 28 17 7 7 9 11 13 14 15 15 15 15 16 17 17 15 13 11 9 10 11 32 84
31 27 14 7 7 10 11 14 16 19 21 22 23 23 22 20 18 16 14 10 8 7 6 5 5 7 9
7 8 11 13 15 17 19 22 23 25 26 25 24 22 19 15 13 10 8 7 6 5 4 4 3 3 3
13 15 17 20 23 26 27 28 28 27 26 24 22 18 14 13 12 12 13 12 11 9 8 6 5 4 4
18 23 26 28 30 32 31 30 29 26 23 22 18 16 16 18 20 20 21 22 21 19 16 14 11 9 7
28 31 33 35 36 36 34 32 27 24 22 20 17 18 20 23 26 28 29 30 29 26 24 22 21 19 16
34 38 40 41 40 41 41 36 28 22 18 17 16 18 21 24 29 32 34 34 33 33 32 30 27 24 23
42 42 40 41 44 46 44 40 31 24 19 18 17 19 24 29 34 37 38 39 39 36 33 31 30 28 26
41 39 40 43 45 48 50 49 43 35 26 22 22 24 30 35 41 42 43 42 38 36 34 33 30 27 23
41 39 41 44 46 53 59 60 58 52 43 37 33 34 36 42 49 46 43 41 39 38 37 36 32 28 24
42 41 42 44 49 58 65 64 63 63 63 54 45 42 42 48 49 39 40 41 42 43 42 38 33 28 25
74 68 42 45 48 58 70 71 67 66 66 64 56 47 48 52 48 38 41 44 43 45 44 38 34 30 25
72 41 41 42 45 56 74 78 73 70 72 71 64 60 61 55 46 45 48 48 47 46 47 44 35 30 27
70 42 40 41 44 51 72 83 79 74 77 78 76 70 62 52 53 54 55 53 50 51 51 49 39 30 28
94 77 43 42 61 72 73 85 87 78 77 77 73 70 68 69 68 66 62 57 55 55 54 49 44 34 32

GFSFLT2_700_rhum_069.txt.gz
RH
57 52 59 58 42 29 28 27 24 25 25 10 7 7 8 9 9 9 8 8 8 8 12 35 83 100 98
59 62 63 36 30 33 30 29 30 26 7 7 9 11 11 11 11 11 12 13 14 12 11 12 37 65 71
66 67 39 33 39 34 34 28 9 7 10 12 14 16 16 16 17 17 18 18 17 15 13 12 10 16 28
59 36 40 38 32 15 8 8 11 14 16 19 21 23 23 23 22 21 20 18 16 13 11 9 7 6 7
37 29 18 10 9 10 14 17 19 22 24 25 26 26 24 22 20 17 14 11 9 8 7 7 6 5 4
10 7 9 13 16 20 23 26 28 29 29 27 26 25 22 19 16 14 12 12 13 14 12 10 9 7 6
6 11 16 21 26 29 31 32 32 31 30 27 25 23 20 18 16 17 19 20 21 22 22 20 18 16 13
13 19 27 30 33 35 36 36 37 34 29 25 23 20 19 19 20 22 24 27 29 31 30 29 28 26 25
26 31 34 37 40 41 41 42 41 36 30 25 22 19 18 19 21 25 30 34 37 37 35 35 35 33 31
34 37 42 43 42 42 44 45 45 42 35 29 24 20 19 20 24 29 34 41 44 43 41 39 34 32 29
40 43 43 42 42 44 46 48 52 54 50 42 36 32 27 26 32 38 42 47 48 45 41 39 36 34 33
42 44 43 43 46 62 66 51 60 62 61 60 57 51 43 40 41 41 46 51 50 44 43 42 41 40 40
43 44 46 52 79 89 48 52 64 69 67 64 63 62 61 53 50 47 52 55 51 45 46 46 45 45 44
41 45 52 94 88 50 46 46 59 75 75 71 68 68 66 61 56 50 54 52 45 47 50 50 49 47 45
38 54 95 95 54 46 43 42 49 70 82 80 74 73 73 69 66 64 59 50 47 51 54 55 53 52 51
89 96 98 97 84 45 42 43 50 68 82 88 82 77 77 74 71 63 55 55 57 61 62 62 59 57 55
96 96 96 96 96 88 82 74 82 91 92 93 92 87 82 79 78 75 73 73 74 73 71 70 68 62 58

GFSFLT2_700_rhum_075.txt.gz
RH
41 41 53 61 69 96 100 82 78 74 58 35 28 25 26 20 8 8 8 8 7 7 6 16 23 68 87
41 49 56 58 71 64 67 69 76 58 38 34 30 31 30 11 8 9 9 9 9 9 9 9 12 39 77
47 54 62 68 68 65 71 78 63 40 42 34 37 27 10 9 11 11 11 10 10 12 13 14 13 15 32
53 60 66 71 70 71 76 57 45 46 39 38 15 9 12 14 17 19 20 20 20 19 18 18 16 15 16
61 67 74 76 80 81 52 50 48 36 13 10 12 16 19 22 23 24 24 24 22 20 18 16 15 13 11
70 75 79 81 79 46 38 26 12 10 14 18 21 24 26 26 26 25 23 21 18 14 12 9 8 8 7
80 86 85 63 43 11 10 12 16 22 25 28 30 29 28 27 25 23 19 16 14 13 12 13 14 14 15
71 58 52 34 9 11 19 26 30 31 32 32 32 31 28 25 23 20 17 16 17 18 20 22 24 26 27
54 41 14 9 17 26 32 33 34 36 36 37 36 31 27 24 21 19 18 18 20 22 25 29 32 35 36
11 12 20 27 32 35 37 40 42 44 43 41 37 34 33 26 22 20 18 18 20 23 28 33 38 40 41
27 32 35 38 40 43 45 45 48 50 62 82 95 94 64 40 37 32 30 28 28 29 33 39 43 46 46
36 37 39 44 45 46 45 47 58 74 78 94 95 77 64 60 56 51 49 46 44 41 41 43 46 50 49
38 39 42 45 46 47 49 59 84 84 84 58 65 75 74 72 68 66 63 59 57 55 54 51 51 54 54
38 38 40 60 64 61 60 63 65 84 81 54 47 50 72 81 80 76 72 68 64 63 60 57 58 59 56
39 40 41 49 69 66 60 68 85 94 83 53 46 51 55 77 87 88 84 80 76 73 71 69 67 66 62
38 40 40 43 46 48 56 81 96 97 96 80 61 76 80 91 93 94 90 85 79 78 78 78 73 71 68
37 40 48 61 84 93 97 96 96 95 96 96 96 95 94 92 96 97 93 88 89 92 93 92 93 95 88

GFSFLT2_700_rhum_078.txt.gz
RH
39 41 44 46 46 59 97 73 100 94 98 94 70 64 33 28 28 29 11 8 7 9 14 28 33 35 56
42 42 43 45 54 60 70 75 88 94 82 76 66 40 33 31 29 24 9 8 8 8 8 9 19 33 55
40 40 41 46 60 81 84 94 78 71 76 70 46 41 33 35 30 12 9 9 9 9 9 9 10 32 69
40 39 44 52 63 70 80 80 75 78 67 49 48 41 42 20 9 10 11 12 12 11 11 12 13 14 26
38 41 52 63 70 79 82 80 82 58 54 53 45 32 12 11 13 16 18 19 20 20 19 18 17 16 15
41 52 65 76 84 87 87 84 51 58 51 22 12 12 14 18 21 23 24 24 24 22 21 19 17 15 13
50 65 75 86 92 90 70 38 20 13 12 14 18 21 24 26 26 26 25 24 22 18 15 12 10 9 8
55 71 79 77 64 54 19 10 13 19 24 28 29 30 29 28 26 24 23 21 18 15 13 13 14 14 15
48 48 50 50 26 10 11 20 28 31 31 33 33 32 30 29 25 22 20 18 16 16 18 20 21 23 25
55 51 28 11 12 23 30 32 34 36 38 39 38 38 34 34 29 22 20 18 18 18 20 22 25 29 32
12 12 16 24 29 32 35 38 42 43 45 46 53 70 78 92 95 93 81 36 24 22 22 23 27 31 35
22 29 33 35 37 40 43 44 45 52 71 79 84 80 77 83 81 54 43 41 38 37 37 36 36 38 42
30 36 38 39 42 44 46 48 50 60 67 76 77 76 83 92 89 69 64 62 60 59 57 54 52 50 49
33 37 39 40 42 46 53 60 70 73 78 72 85 78 58 59 71 78 78 75 71 68 66 63 61 59 58
37 36 38 39 45 56 59 58 60 64 71 75 88 85 59 48 49 59 77 85 84 82 79 76 73 71 68
54 42 40 40 41 46 56 65 64 62 63 80 96 95 80 57 71 78 89 91 86 82 80 80 80 79 78
34 35 37 39 40 41 43 50 71 86 93 96 95 93 91 89 89 92 93 90 86 85 84 81 80 81 82

GFSFLT2_700_rhum_081.txt.gz
RH
34 34 36 38 41 43 44 43 52 82 88 99 89 99 81 72 56 31 27 30 26 15 19 29 32 25 24
36 36 40 42 41 41 44 57 65 76 79 97 87 87 76 68 41 33 29 28 17 10 9 13 24 28 30
34 37 40 40 40 41 44 51 69 74 77 73 72 79 74 47 40 34 37 28 10 8 9 9 10 16 29
35 35 37 36 38 39 47 57 61 68 70 71 74 72 50 49 38 37 25 12 10 9 9 9 10 10 22
37 41 41 39 39 43 53 60 71 77 76 80 58 51 52 47 39 14 12 11 12 12 10 10 10 12 15
40 31 33 38 48 58 59 72 83 82 80 50 55 52 34 16 12 13 15 18 19 20 20 20 18 16 15
38 39 38 42 57 68 76 78 84 66 38 32 17 12 13 16 18 20 22 24 24 24 23 22 21 19 18
41 40 37 38 60 72 69 67 45 14 12 14 18 22 25 26 27 27 26 25 23 21 19 16 14 12 10
39 37 38 44 43 47 45 22 10 14 23 28 30 31 30 30 31 28 24 24 22 19 16 14 14 13 14
32 32 45 48 44 27 11 11 21 29 31 32 34 37 35 35 32 32 34 28 22 18 17 18 19 21 22
14 21 24 24 16 12 25 30 33 34 35 38 39 39 41 57 79 81 87 63 29 27 32 29 22 22 24
8 10 12 16 21 24 30 34 37 40 42 45 56 74 75 75 77 78 76 76 77 79 57 31 27 27 29
11 17 24 30 34 36 38 41 44 45 50 65 69 67 69 74 76 87 88 78 61 53 51 50 49 48 48
15 24 31 36 37 39 42 45 46 47 53 56 63 71 67 75 73 81 89 84 74 72 70 68 65 63 61
17 31 34 35 39 40 42 46 52 61 68 68 66 67 66 70 84 63 56 53 67 78 80 80 79 76 74
27 42 40 38 38 39 43 51 58 60 60 64 64 57 62 79 90 81 55 55 72 78 84 84 83 80 77
26 43 47 46 41 40 41 42 46 53 53 51 72 88 91 92 93 89 80 80 82 84 84 83 82 82 81

GFSFLT2_700_rhum_084.txt.gz
RH
50 37 35 37 38 40 41 41 42 41 40 39 53 63 70 64 77 65 68 39 29 28 27 18 27 30 27
37 37 34 36 39 39 41 40 38 37 39 44 58 57 64 76 71 71 55 34 30 30 53 18 15 28 29
38 36 38 37 36 36 39 38 37 36 40 43 49 62 70 69 70 64 43 36 32 31 19 11 10 16 31
39 40 39 40 38 42 40 38 38 40 50 54 61 67 69 72 64 46 43 38 36 26 9 10 11 10 21
44 41 39 39 39 33 32 32 36 42 54 68 74 74 73 53 51 50 45 37 20 18 14 9 9 11 64
47 42 40 37 38 38 39 44 53 55 65 74 82 64 51 52 50 43 21 13 12 12 12 11 11 10 11
45 43 39 39 41 40 41 49 60 78 83 77 48 45 34 18 14 13 14 17 18 20 20 21 20 19 17
44 43 40 40 39 37 40 48 61 70 65 26 14 12 14 17 20 22 24 25 26 24 23 23 24 21 20
47 43 42 40 37 39 39 39 45 36 13 12 16 24 28 29 29 29 28 28 27 25 22 19 18 15 13
51 46 42 32 35 43 41 36 14 10 14 24 29 31 32 33 31 30 28 27 30 57 66 36 16 14 14
56 51 45 18 29 40 25 11 12 22 29 31 33 35 37 33 34 42 65 80 82 80 67 40 19 19 20
62 56 36 10 12 12 13 19 31 32 34 38 39 41 49 69 73 71 74 78 78 84 77 56 77 82 81
69 61 31 10 13 19 26 27 32 35 40 42 46 59 70 66 68 64 73 81 78 56 76 82 63 42 32
76 70 35 13 20 30 34 36 40 43 44 47 58 63 62 65 66 62 70 79 96 91 79 64 61 60 60
87 82 43 16 26 34 38 39 42 46 46 51 57 62 66 66 66 63 62 73 76 83 82 80 80 78 76
94 88 65 19 30 35 38 40 43 47 49 56 64 65 64 64 59 71 82 89 64 52 56 68 78 83 84
93 90 71 23 38 39 39 39 42 47 52 59 61 60 55 61 87 93 94 90 86 71 64 74 82 84 84

GFSFLT2_700_rhum_087.txt.gz
RH
87 81 66 48 39 37 35 38 38 40 38 39 38 39 38 46 51 50 51 52 50 53 28 23 26 26 29
84 78 60 44 41 40 38 38 38 39 38 39 38 42 39 44 56 58 61 60 60 42 28 25 32 26 24
80 60 47 40 37 38 38 38 36 39 41 41 40 40 42 54 58 58 64 67 55 36 30 31 40 24 14
60 48 41 36 37 39 38 36 38 35 37 38 40 45 50 58 64 68 72 61 41 35 33 29 15 19 20
51 46 42 41 41 40 37 35 38 37 38 41 45 52 61 70 72 71 54 47 41 36 33 14 11 20 19
62 50 45 44 41 37 36 37 39 39 40 46 54 66 71 74 59 54 48 46 41 29 21 13 11 16 99
60 54 49 49 44 39 37 39 38 40 49 54 70 78 59 48 49 41 33 20 13 12 12 12 11 10 15
61 58 54 49 44 41 40 39 39 43 50 64 69 45 29 18 13 14 14 16 17 19 20 21 21 20 19
63 56 55 52 46 43 41 38 38 38 42 44 24 13 13 16 20 23 24 25 25 26 24 25 24 22 20
62 57 55 54 49 44 35 39 39 40 31 14 12 19 26 30 30 30 28 27 26 24 23 41 56 55 20
66 61 60 57 52 41 23 40 42 24 12 13 24 30 31 33 34 31 27 28 45 52 48 52 53 58 43
69 66 64 63 54 26 14 22 22 13 18 28 31 34 37 38 37 47 64 69 70 77 82 67 40 43 50
76 76 71 66 59 21 11 12 13 21 31 33 36 39 41 50 70 67 66 64 68 76 75 78 91 59 73
85 85 76 71 66 30 11 17 22 25 30 36 41 43 63 74 68 70 68 61 68 86 86 47 64 79 78
92 90 92 83 73 48 15 23 32 36 38 42 44 51 68 71 66 70 67 66 63 71 88 96 91 72 67
97 97 94 96 84 67 22 26 36 39 40 44 45 50 64 66 68 66 60 61 71 78 73 87 76 78 81
97 98 98 97 90 81 33 25 35 39 42 44 47 51 62 68 66 57 61 88 95 94 83 56 54 60 71

GFSFLT2_700_rhum_090.txt.gz
RH
98 98 89 83 79 63 44 35 34 33 35 36 36 36 36 36 35 33 37 42 51 50 48 58 50 26 25
99 86 85 78 67 52 40 36 35 38 36 36 38 38 39 38 38 40 40 49 51 53 55 60 42 27 27
84 87 79 72 56 47 41 39 40 38 35 33 37 36 36 38 39 42 44 55 59 59 61 52 33 29 32
96 89 84 77 56 49 43 41 41 37 34 33 33 32 34 36 40 49 59 64 67 65 59 42 35 29 30
98 94 92 81 58 48 42 42 39 37 34 37 38 37 38 41 51 59 63 68 67 57 45 38 37 23 18
96 92 87 77 55 47 44 44 40 35 36 38 35 36 41 50 62 66 68 54 46 44 43 41 26 21 82
96 97 90 84 56 48 47 45 40 37 38 37 35 41 47 56 59 49 46 46 45 45 37 28 20 14 97
95 90 92 80 60 54 49 46 40 38 38 38 40 46 56 51 39 33 23 24 20 16 13 12 11 10 29
99 95 94 72 64 55 51 48 42 40 39 38 42 49 38 20 14 12 13 14 15 16 17 18 18 17 15
80 86 79 76 66 59 54 49 45 42 37 38 40 26 14 13 16 20 24 26 26 26 25 24 22 21 22
85 77 79 81 69 62 57 52 47 32 39 38 22 13 14 22 28 31 31 30 29 28 24 22 28 42 53
88 91 90 79 71 66 60 54 37 28 37 22 12 17 28 32 33 34 34 30 31 50 57 67 67 52 47
100 100 96 82 73 69 65 54 21 19 24 13 18 27 31 35 38 39 37 42 57 61 61 70 82 71 39
100 99 95 83 79 74 69 46 15 12 14 21 30 33 36 39 42 51 58 61 64 64 60 70 77 79 90
98 98 94 86 86 82 78 47 14 14 19 20 28 34 38 42 53 60 58 60 66 64 58 63 87 62 42
100 98 98 95 96 96 95 88 28 21 30 32 34 37 41 50 60 64 60 65 66 60 57 63 70 92 91
97 99 97 98 98 97 96 96 52 32 31 36 38 41 44 52 66 63 67 66 58 57 71 86 82 81 85

GFSFLT2_700_rhum_093.txt.gz
RH
93 97 95 95 98 97 89 82 70 51 37 33 32 32 33 34 34 34 33 33 32 34 35 39 44 44 44
100 98 99 98 100 90 84 69 54 42 35 32 33 33 33 33 35 34 34 33 35 36 38 43 46 45 48
100 90 99 94 98 92 76 58 46 38 34 33 34 35 32 32 31 31 32 32 36 40 43 46 49 52 47
99 98 96 92 94 85 78 56 41 38 36 38 36 34 31 34 35 34 33 35 40 44 48 53 58 51 38
92 86 84 87 96 94 78 62 45 40 39 39 35 33 32 33 33 34 39 43 48 53 54 59 52 39 32
94 98 100 100 98 94 85 66 51 46 43 40 36 32 33 34 33 38 42 50 54 57 52 48 44 40 32
99 99 100 100 98 93 81 74 54 46 41 42 38 35 34 33 37 41 49 53 44 41 42 43 43 39 25
99 99 99 98 98 93 85 78 52 47 45 43 39 36 36 36 38 45 48 42 38 40 41 39 34 28 27
100 100 99 98 98 95 88 76 57 52 50 45 40 40 38 38 40 43 30 19 17 17 16 14 13 12 12
100 100 100 95 96 92 79 63 61 55 52 47 43 40 38 40 36 20 13 12 14 15 16 15 16 15 13
100 100 100 90 92 81 69 74 67 59 54 48 42 41 38 32 17 13 16 22 25 25 25 25 24 23 22
100 100 100 100 96 85 85 82 70 62 57 48 39 42 33 14 14 21 28 30 30 29 27 25 24 24 36
100 100 100 100 99 100 98 83 72 66 59 49 34 39 15 14 25 31 32 32 30 28 27 40 56 61 64
100 100 99 100 100 100 99 86 76 68 60 39 24 23 13 26 31 33 34 31 30 51 62 61 60 58 64
99 99 98 97 99 98 98 91 80 71 57 25 15 15 21 31 33 35 40 51 62 61 62 64 61 58 64
94 98 98 98 98 100 99 94 84 74 41 18 12 14 28 33 34 37 51 63 64 62 66 65 59 54 61
98 96 100 100 98 97 98 98 93 87 88 44 16 20 25 33 34 45 70 74 68 65 66 58 55 57 67

GFSFLT2_700_rhum_096.txt.gz
RH
99 100 96 98 100 99 100 100 100 97 93 85 51 36 30 28 30 30 29 30 31 30 32 32 30 29 33
99 100 100 97 99 100 100 100 96 90 79 56 42 33 30 32 33 31 29 30 30 29 29 31 33 33 35
99 99 99 100 100 100 100 99 94 83 64 43 36 31 29 31 32 30 30 32 31 31 29 31 37 39 38
91 99 100 99 100 98 99 99 97 78 58 40 34 30 30 32 32 31 31 35 32 32 34 36 40 42 41
77 99 99 99 100 100 99 98 96 83 62 42 36 33 35 35 32 31 30 32 32 36 39 41 46 49 48
99 97 95 99 96 99 98 93 98 86 66 45 35 35 38 36 32 31 30 29 35 38 43 48 51 52 46
99 100 99 100 98 100 96 99 99 90 72 52 40 38 39 37 35 33 33 35 37 43 46 45 41 43 39
99 99 99 99 98 100 100 100 92 88 80 64 47 44 41 38 36 35 35 38 40 46 41 38 39 42 36
100 100 100 99 97 99 99 99 99 95 87 68 51 46 44 41 38 37 38 38 42 41 35 38 40 37 34
80 100 98 99 98 98 96 98 98 92 88 71 57 50 45 44 41 39 38 40 34 21 17 18 18 16 16
100 99 98 98 98 98 100 94 85 95 83 72 57 54 48 47 42 39 39 28 16 13 14 14 14 14 13
99 100 100 99 97 99 98 98 95 100 88 76 62 58 54 48 40 38 28 14 14 18 22 24 23 23 22
100 100 100 100 99 98 100 100 98 99 93 84 70 61 56 47 40 33 17 16 24 28 29 28 27 25 22
100 100 99 98 98 98 98 100 100 100 92 88 72 64 56 40 40 18 15 24 29 32 30 25 25 30 53
97 96 97 98 96 95 95 98 99 100 100 91 76 66 48 32 29 14 22 32 33 30 27 53 63 60 59
68 87 92 97 99 92 86 97 99 99 99 94 81 64 44 24 18 17 30 33 34 32 44 60 60 59 60
100 91 85 92 77 94 97 99 99 100 98 97 87 61 34 14 15 23 31 32 38 54 65 64 63 63 60

GFSFLT2_700_rhum_099.txt.gz
RH
100 100 100 99 99 99 100 100 100 100 100 99 99 99 92 59 39 30 29 29 29 26 25 26 27 28 28
99 99 100 99 99 99 100 100 100 100 99 99 90 76 61 45 35 30 29 29 28 26 26 28 29 28 27
98 100 99 100 99 99 97 99 100 100 99 95 87 65 48 39 34 30 29 29 27 26 29 30 30 28 28
85 92 83 94 99 99 100 100 100 98 99 94 79 60 45 37 33 31 31 31 29 28 30 30 30 31 30
69 96 93 100 99 96 99 100 99 99 98 91 81 61 42 36 33 35 33 31 30 31 29 31 29 31 32
87 84 76 98 100 90 99 99 97 96 97 96 86 66 43 36 34 35 33 32 31 29 28 32 31 34 35
35 37 45 89 93 99 100 96 99 99 95 97 93 72 49 38 36 37 34 33 33 31 34 35 35 39 39
69 44 36 90 69 99 99 100 100 96 85 99 98 82 58 40 38 40 38 36 35 34 38 38 39 39 36
100 95 88 100 100 99 98 98 98 94 97 100 100 96 70 46 42 42 40 39 39 39 40 40 40 36 35
99 99 88 99 99 98 100 97 94 98 98 99 99 98 84 51 43 44 44 42 39 42 44 40 33 35 36
86 99 100 98 98 100 98 100 92 99 95 96 98 98 80 74 54 49 46 43 39 41 38 25 21 25 25
32 73 98 99 98 98 99 98 99 98 99 94 92 93 84 74 64 54 49 44 39 37 23 14 13 13 13
49 38 69 98 98 97 98 98 89 98 98 100 100 100 86 78 68 55 50 44 38 22 14 14 17 18 18
76 48 58 95 95 98 96 98 100 92 98 100 99 98 88 84 67 58 50 40 28 16 16 21 26 26 24
100 68 67 62 89 96 96 98 83 95 92 96 99 100 100 84 69 58 46 38 19 18 24 30 30 28 23
98 99 100 96 96 97 90 94 96 98 96 94 98 100 100 87 71 53 41 31 16 24 30 32 28 25 37
99 95 98 100 98 88 94 95 91 95 96 98 98 99 100 91 65 50 32 19 18 30 32 29 34 62 64

GFSFLT2_700_rhum_102.txt.gz
RH
98 99 98 100 100 100 100 100 98 98 99 100 100 99 99 100 100 85 78 42 34 29 29 30 25 25 24
99 99 99 99 100 100 99 98 98 99 100 100 100 98 100 99 99 96 63 38 32 31 31 28 24 25 25
99 98 96 98 99 98 99 99 100 99 100 100 99 100 99 100 90 62 48 36 29 29 27 30 27 26 26
85 89 95 97 98 100 97 97 99 100 100 99 99 100 97 82 69 50 42 35 31 30 31 30 28 29 27
41 42 46 51 91 99 84 97 100 90 99 100 99 100 100 90 63 48 40 36 34 32 32 30 28 28 27
45 42 38 41 63 72 94 99 99 95 99 99 99 99 97 83 66 51 40 35 32 33 32 30 28 26 31
42 48 47 42 86 76 99 86 96 100 98 99 100 98 99 96 74 55 42 38 37 37 33 30 27 27 33
31 42 52 95 81 100 95 86 99 100 100 99 98 96 99 99 95 67 45 39 37 37 37 34 30 34 36
30 30 42 82 100 100 100 92 100 100 99 100 100 98 96 87 92 75 52 40 41 40 39 36 35 38 39
8 26 31 42 99 98 100 96 100 100 92 100 100 100 98 87 98 86 57 48 45 42 40 37 37 39 40
6 11 38 35 41 71 98 99 100 99 99 100 98 99 98 91 100 98 72 57 47 44 42 39 40 42 37
6 7 37 44 34 45 91 98 98 98 99 99 99 94 96 98 98 98 93 68 52 46 43 42 42 36 31
7 8 14 50 36 36 98 96 98 97 97 98 98 99 96 98 100 98 92 69 52 48 44 43 38 24 19
10 12 11 40 77 100 93 99 96 98 97 98 97 98 97 98 98 99 96 71 57 50 44 40 26 14 13
15 15 15 24 68 99 100 95 96 96 97 97 97 97 98 97 98 98 94 73 59 51 43 29 16 15 17
14 17 19 21 79 92 98 99 93 97 96 95 97 98 98 96 97 97 94 75 57 49 34 17 17 23 24
14 15 20 41 92 87 96 98 96 96 97 98 97 97 97 97 92 97 95 73 55 46 23 18 25 27 27

GFSFLT2_700_rhum_105.txt.gz
RH
99 100 100 100 100 100 99 100 97 99 99 100 98 99 97 100 100 100 100 100 99 98 68 36 26 26 25
100 100 99 100 100 100 100 99 99 98 98 98 100 99 99 99 100 100 99 99 98 93 71 36 26 26 26
100 99 99 100 99 98 100 100 100 99 100 100 91 84 99 100 100 99 98 100 100 97 65 34 27 28 28
98 98 100 100 100 100 99 100 100 100 100 99 97 100 100 99 97 96 98 98 100 82 45 34 30 28 28
60 64 60 57 68 71 95 91 100 100 98 100 98 100 99 98 94 100 100 91 67 49 39 33 30 28 26
38 47 48 47 45 44 46 60 100 99 99 100 100 92 100 99 95 92 88 85 70 50 38 34 32 32 29
17 22 26 34 44 47 45 52 93 99 88 99 100 99 99 100 94 99 95 87 75 51 37 33 33 32 32
5 8 13 21 27 31 41 51 55 96 97 99 100 99 99 100 100 100 100 93 76 56 39 30 31 34 31
5 5 5 5 13 27 30 36 54 87 98 99 99 98 100 98 100 100 100 99 97 74 43 35 33 34 31
11 10 7 5 6 10 32 33 37 62 88 100 98 92 99 96 99 99 100 99 99 97 61 42 39 34 34
9 11 14 9 5 6 21 40 35 51 85 92 97 93 93 98 100 99 96 100 99 97 68 50 44 38 36
15 10 15 15 8 6 9 35 67 44 94 98 94 99 98 92 99 99 99 98 99 99 84 54 46 42 38
32 26 21 18 12 6 6 19 48 86 73 59 98 100 97 97 98 94 100 98 98 100 98 54 46 43 41
34 25 19 14 10 7 7 11 44 86 100 100 93 97 96 98 99 99 98 98 98 98 97 78 50 44 47
23 17 14 13 11 11 10 12 36 58 92 98 99 92 96 97 97 98 97 99 100 98 97 92 53 49 48
22 18 17 15 14 14 16 16 34 74 96 93 96 98 96 97 98 98 97 98 98 100 94 76 54 50 40
23 20 18 15 15 17 20 33 79 76 89 100 96 97 96 96 97 97 95 97 97 98 96 89 57 47 25

GFSFLT2_700_rhum_108.txt.gz
RH
99 99 100 100 99 100 100 99 100 100 100 98 98 98 98 98 99 100 98 97 100 99 98 100 97 93 61
100 100 100 100 99 100 100 100 100 100 99 99 100 99 98 99 98 100 99 97 100 100 100 99 93 93 66
99 100 100 100 100 100 100 100 100 100 99 99 99 98 100 100 99 99 98 99 100 100 97 97 96 93 73
99 99 100 99 100 100 100 100 99 99 100 98 99 100 98 99 98 99 100 100 100 100 92 100 97 93 75
37 54 70 90 97 99 99 100 100 100 100 99 99 98 100 92 94 98 100 100 100 99 96 99 94 94 49
12 14 21 32 44 53 59 58 58 83 83 98 100 98 100 99 100 100 100 100 100 99 95 99 93 58 37
4 5 8 12 15 20 28 39 45 43 44 60 77 98 99 100 100 100 100 100 100 94 100 84 64 52 38
5 4 4 4 4 5 10 14 16 27 42 45 52 94 100 99 99 100 99 100 100 99 98 94 83 63 40
7 7 7 6 6 5 4 4 6 13 18 33 50 57 98 86 99 99 99 100 99 99 99 99 99 69 44
15 14 14 12 11 9 7 5 5 5 9 18 30 55 57 68 100 99 99 99 99 100 99 99 100 87 51
16 18 21 21 18 15 14 10 7 5 5 8 18 34 71 92 86 94 99 99 99 99 99 99 93 99 95
16 18 21 23 26 23 19 17 12 7 5 9 7 21 36 70 97 76 84 100 99 100 99 99 98 100 98
18 22 28 33 33 30 26 21 15 9 6 6 11 27 31 91 96 92 91 99 98 98 100 98 98 99 99
32 32 37 40 41 37 28 21 17 13 8 7 11 43 100 54 46 78 77 95 93 94 98 98 99 98 98
65 54 51 48 46 34 22 16 15 12 9 8 12 33 49 93 87 71 99 88 90 96 99 99 98 98 99
86 65 53 45 33 20 16 14 12 10 9 8 16 38 54 71 84 90 92 82 85 88 100 97 98 98 98
100 76 50 39 23 20 16 15 14 15 16 17 31 98 82 60 85 89 69 73 95 100 98 98 97 98 98

GFSFLT2_700_rhum_111.txt.gz
RH
100 100 99 100 99 99 100 99 100 100 100 100 100 100 99 99 99 100 93 95 100 99 98 100 100 100 100
99 100 100 98 99 100 100 100 100 99 100 100 100 100 100 97 93 95 99 99 98 100 99 99 100 99 100
100 99 100 100 100 100 99 99 100 100 100 100 100 99 100 100 99 100 100 100 100 99 100 99 99 97 100
15 21 72 95 99 99 99 99 99 100 100 100 100 100 100 100 100 100 100 100 100 100 100 99 100 100 100
8 12 13 17 43 93 99 99 99 100 100 100 99 99 100 100 99 100 96 95 100 100 99 100 100 100 100
4 4 5 9 14 19 26 51 96 99 99 99 100 100 100 99 98 92 93 93 94 99 100 100 100 100 99
5 5 4 4 4 6 10 15 20 34 62 70 65 82 98 98 100 97 93 98 100 100 100 100 100 99 100
8 7 6 6 5 4 4 4 6 10 14 20 37 45 46 57 99 100 99 99 100 100 100 100 100 98 100
11 10 10 8 7 6 6 4 4 4 4 7 10 17 36 44 52 73 98 100 99 99 100 100 100 100 100
18 17 16 14 13 12 9 8 7 5 5 4 4 6 12 23 44 52 96 99 99 98 99 100 99 99 100
15 15 17 17 20 20 18 16 11 9 7 6 5 4 4 10 18 47 64 85 99 99 100 99 100 100 100
24 17 16 16 16 19 23 24 22 17 14 12 8 6 5 4 10 17 44 56 77 96 99 99 100 99 100
79 59 40 22 20 19 21 25 29 29 25 18 14 11 7 5 5 9 22 48 57 66 98 99 99 99 98
100 100 92 66 51 44 32 33 36 36 32 26 20 17 13 7 5 5 12 35 54 82 99 92 98 98 100
100 100 94 91 81 66 54 48 44 41 36 26 19 17 15 10 6 6 17 35 29 71 98 100 89 98 97
94 99 98 94 89 64 53 44 38 28 22 18 14 12 12 11 7 6 13 72 69 60 97 91 95 99 98
94 96 95 94 92 60 42 26 21 18 16 15 14 14 12 9 10 11 9 38 96 100 72 95 87 86 97

GFSFLT2_700_rhum_114.txt.gz
RH
99 99 100 100 100 100 100 100 100 100 100 99 100 98 98 99 100 100 100 100 99 99 99 100 98 98 100
71 98 99 99 100 100 100 99 100 100 99 100 100 100 99 99 99 100 99 100 100 100 99 99 99 99 100
11 21 97 99 100 99 100 99 100 100 99 100 100 100 100 99 100 99 99 100 100 100 100 98 98 100 100
4 5 9 54 88 97 99 99 100 100 100 100 100 99 99 100 100 99 100 100 100 100 100 99 98 100 100
5 4 4 4 8 12 15 61 99 99 100 100 100 100 100 100 100 100 100 100 100 100 98 100 100 100 100
6 6 5 5 4 4 5 11 13 92 99 99 99 99 99 100 100 99 100 100 100 99 98 100 100 100 100
7 7 7 6 5 5 4 4 5 10 17 49 91 99 99 99 99 99 99 100 99 100 97 99 100 100 100
10 8 8 8 7 6 6 5 4 4 4 8 13 33 95 99 98 99 100 99 100 99 100 100 100 100 100
17 16 13 11 11 9 8 7 6 5 5 4 4 8 13 37 88 78 48 84 100 98 100 100 100 100 100
17 28 23 17 15 14 13 10 10 7 6 6 5 4 3 8 19 35 52 49 98 99 100 100 100 100 100
18 18 29 37 20 17 17 16 15 13 10 10 8 8 6 3 4 12 28 46 51 79 100 100 100 100 98
28 25 33 39 50 25 20 19 17 16 16 17 13 10 8 7 4 4 11 27 63 86 90 98 100 100 99
45 40 48 55 58 62 39 27 23 17 17 21 21 17 13 10 7 5 4 10 32 82 100 100 100 99 100
62 61 63 69 75 71 70 59 41 26 28 25 27 28 19 15 12 8 6 5 9 38 94 100 100 100 99
82 78 74 77 82 88 83 81 70 46 41 43 39 36 32 23 17 13 8 8 6 10 25 82 99 100 99
91 89 85 85 87 90 89 86 80 68 55 49 43 39 37 31 25 18 15 12 8 6 10 32 58 97 100
94 92 89 91 97 94 98 95 83 58 45 32 25 21 21 25 22 19 17 16 11 7 10 18 20 40 91

GFSFLT2_700_rhum_117.txt.gz
RH
10 58 93 99 99 100 100 100 100 100 99 100 100 100 100 100 99 100 98 100 98 100 100 100 99 100 98
5 5 26 73 91 97 100 100 100 100 99 100 100 100 100 100 100 100 99 99 99 100 100 98 100 100 99
17 11 5 4 22 52 63 99 100 99 100 100 100 100 100 100 100 99 97 99 100 99 99 98 99 98 98
11 11 11 9 5 4 7 79 99 99 99 99 100 99 99 99 100 100 100 100 98 100 99 99 99 100 98
7 7 8 8 7 6 5 5 26 91 98 99 99 99 100 99 100 100 100 100 100 99 98 99 99 98 99
7 7 6 6 6 7 7 6 4 4 23 59 96 99 99 99 100 100 99 100 100 100 99 98 98 100 100
6 6 5 6 6 6 6 7 6 5 4 5 10 54 98 99 99 100 100 100 100 100 99 100 100 100 100
6 6 6 6 6 6 6 7 7 7 6 5 4 6 18 78 99 99 99 99 100 100 98 100 100 100 100
11 11 11 12 11 8 10 10 9 8 8 8 6 4 4 5 11 68 98 99 99 99 98 99 99 99 100
17 20 21 20 19 17 15 17 18 12 10 9 10 7 6 4 4 5 10 85 99 99 97 100 99 100 100
24 26 24 26 28 25 21 24 32 28 17 13 10 12 10 7 6 4 4 9 37 96 96 100 99 99 99
36 37 38 35 36 37 33 39 43 47 35 18 15 13 12 11 8 7 5 5 16 47 92 98 99 100 99
51 49 49 48 46 47 49 55 56 60 68 39 19 16 15 13 10 8 7 6 6 18 67 91 98 99 99
59 57 58 58 59 64 57 60 62 65 80 80 43 23 16 16 16 11 8 7 8 6 22 73 99 98 99
67 67 67 67 70 76 73 68 72 70 67 76 77 48 27 20 19 17 12 9 8 8 8 42 100 99 99
72 76 74 76 77 79 83 83 85 87 83 84 75 66 52 37 32 24 20 15 11 10 7 6 30 100 99
83 85 84 84 88 84 85 90 92 99 96 89 59 47 45 48 37 33 22 22 17 13 11 8 6 23 99

GFSFLT2_700_rhum_120.txt.gz
RH
22 22 20 15 7 5 9 67 99 99 99 99 100 100 98 97 89 90 84 93 100 99 99 99 100 97 95
33 30 26 23 20 16 6 5 12 91 98 99 100 100 100 100 99 100 95 98 99 100 99 100 100 98 99
10 10 12 16 18 16 16 12 5 6 25 97 99 99 100 100 100 99 100 98 100 100 100 99 100 98 99
6 6 6 6 6 7 11 11 11 7 5 7 80 98 99 98 100 100 98 100 100 99 100 100 100 100 100
8 7 6 6 6 6 6 6 6 9 9 5 4 79 98 99 99 100 100 99 100 100 100 100 100 99 100
8 8 9 7 7 7 7 7 6 6 6 9 7 5 72 98 98 100 99 99 100 100 100 100 99 99 96
10 10 9 6 6 5 5 6 6 6 5 5 6 7 5 15 93 98 99 99 99 100 100 99 100 100 100
12 10 9 8 8 7 6 6 5 5 5 5 5 6 8 6 7 83 91 99 99 99 99 100 100 100 99
12 11 12 15 18 16 15 12 8 7 8 8 5 5 6 7 6 5 9 52 98 99 99 100 100 100 99
16 14 23 26 29 31 29 25 23 17 15 13 11 9 6 7 8 7 5 4 34 98 99 99 100 100 96
14 16 22 30 36 40 43 43 36 30 28 22 16 15 17 8 9 10 8 5 4 6 75 98 99 99 99
18 21 25 32 40 47 51 52 50 43 34 34 33 33 22 17 10 9 10 9 6 4 6 44 98 99 100
21 20 23 32 42 48 53 54 53 53 52 49 50 50 44 31 20 12 10 12 10 6 4 11 77 98 99
26 25 27 30 42 55 56 58 57 58 67 69 65 63 48 44 41 22 14 10 12 9 6 10 34 84 98
48 47 47 46 53 66 66 67 67 63 61 74 82 74 68 57 51 38 17 14 12 15 9 8 44 94 90
82 82 78 69 70 75 76 78 76 74 73 79 78 79 87 75 64 48 22 16 16 16 14 8 13 74 100
95 98 97 94 91 88 82 82 84 81 87 92 88 88 81 77 65 59 32 26 21 20 19 13 9 18 88

GFSFLT2_700_rhum_123.txt.gz
RH
18 18 21 26 30 34 33 29 24 21 15 6 21 96 100 98 95 100 88 85 88 85 77 85 86 94 99
6 6 6 6 6 7 10 13 19 23 23 21 11 7 54 99 100 97 100 99 91 80 93 91 98 96 99
10 10 9 8 8 7 7 6 6 6 8 17 19 15 6 80 98 100 98 99 99 99 93 98 99 99 96
17 15 13 10 9 10 10 9 8 7 6 6 6 11 14 6 72 98 99 99 100 99 99 98 98 99 100
17 17 16 16 17 19 21 20 17 11 8 7 6 6 6 11 7 61 97 99 100 100 100 100 99 98 100
26 26 26 27 24 20 18 17 17 16 15 11 7 6 6 5 10 8 66 98 99 99 100 100 99 100 100
30 30 29 25 24 25 28 24 18 10 6 9 7 7 6 5 5 8 8 89 99 98 99 100 100 100 99
36 35 33 35 34 27 17 11 9 7 7 6 6 6 6 6 5 5 8 10 82 98 99 99 99 99 100
41 41 40 35 22 14 12 10 8 7 11 15 9 6 6 6 6 5 5 7 15 89 97 98 98 99 99
46 46 36 22 17 18 20 18 16 11 19 22 17 18 11 8 8 8 6 7 7 23 86 97 98 99 99
48 47 34 25 24 25 28 29 25 24 32 37 32 28 28 17 9 9 9 9 8 7 21 92 73 98 99
53 51 40 29 29 29 30 34 36 34 37 47 43 41 37 28 21 15 11 10 11 9 7 13 29 74 98
56 59 55 41 37 39 40 40 40 46 51 54 56 54 50 40 29 20 16 12 13 11 10 7 7 5 70
66 69 73 78 71 64 57 54 45 48 66 72 70 64 53 50 41 25 25 16 16 14 10 9 6 4 9
80 82 86 86 80 86 89 80 73 66 63 78 81 71 66 59 44 37 31 26 24 17 13 11 8 7 11
87 92 91 86 81 86 93 92 84 80 74 82 80 79 74 71 78 55 48 44 44 24 15 12 11 8 27
96 100 96 89 90 90 95 91 87 85 80 84 86 88 73 60 63 81 56 58 55 33 19 16 14 11 30

GFSFLT2_700_rhum_126.txt.gz
RH
8 7 6 6 7 9 10 10 11 12 15 20 28 31 28 24 19 9 48 74 73 90 89 72 72 81 84
10 11 12 12 12 10 8 8 7 6 6 6 6 8 11 20 24 22 11 49 82 80 92 96 86 70 77
14 13 13 13 13 14 14 14 15 15 15 12 10 8 7 6 7 17 20 11 52 81 78 78 98 75 70
16 15 16 20 22 20 17 17 16 18 17 17 19 19 14 9 7 6 10 15 15 91 99 99 94 82 78
19 23 26 25 20 16 13 12 11 9 9 9 10 12 14 14 10 8 6 7 11 12 92 98 99 92 88
30 29 28 25 22 21 18 13 10 10 8 6 6 6 8 13 10 9 7 6 6 10 10 93 99 99 98
35 34 30 31 26 21 17 14 13 11 9 8 7 6 5 5 8 7 7 7 6 6 10 17 92 99 99
39 37 37 38 38 36 29 21 17 15 12 10 8 7 6 5 5 6 6 6 7 6 5 9 42 97 98
45 45 44 44 45 41 37 29 22 19 15 12 11 10 9 7 7 7 8 7 6 6 5 6 9 74 97
50 50 50 49 50 50 45 35 28 22 19 19 16 18 14 11 9 8 12 13 10 6 5 5 7 22 95
56 57 57 55 55 59 56 44 36 28 27 30 22 21 23 20 17 14 19 17 13 10 7 5 6 9 46
66 68 68 65 64 69 75 72 58 48 40 47 36 30 30 23 23 23 27 26 21 14 10 7 7 8 28
74 77 77 74 76 80 78 78 76 80 79 72 65 52 48 38 37 33 33 27 26 21 15 10 9 9 18
75 76 77 78 82 86 78 80 76 78 92 98 86 74 58 52 54 40 41 31 23 24 20 14 12 10 10
76 76 79 85 87 86 87 88 86 82 81 94 94 78 70 65 55 61 50 38 35 26 24 18 17 12 12
76 79 78 72 71 84 91 90 88 87 85 90 88 78 76 69 70 68 74 60 46 41 37 26 20 15 14
71 60 41 47 69 82 86 86 86 86 88 92 86 80 73 62 67 74 74 77 58 47 53 46 28 18 16

GFSFLT2_700_rhum_129.txt.gz
RH
7 6 6 6 6 6 6 6 6 6 6 6 6 6 6 7 8 10 16 24 28 22 16 10 58 76 78
8 12 14 14 13 12 12 11 11 10 11 12 13 13 13 13 12 10 6 6 8 20 26 21 16 67 82
13 14 13 14 13 13 13 16 17 16 14 9 7 7 6 5 5 5 8 12 9 6 9 22 20 15 60
14 16 15 15 16 17 18 16 11 13 11 9 8 8 7 7 7 6 5 5 6 12 8 6 14 16 24
21 20 23 26 26 25 21 12 10 10 9 10 10 10 9 8 7 7 7 7 6 5 11 11 6 11 13
26 26 29 31 33 31 27 21 13 17 13 11 12 11 10 10 10 9 9 8 7 6 5 10 12 6 10
31 34 35 39 38 36 34 30 25 22 21 15 17 13 12 12 11 10 10 10 9 7 6 6 11 10 6
38 41 44 46 46 44 41 38 35 35 36 27 25 21 16 14 13 10 10 10 8 8 6 5 8 10 7
46 49 51 52 51 49 49 47 44 44 44 41 34 30 27 22 16 14 14 13 11 9 7 6 5 8 8
53 56 58 60 62 64 64 61 57 51 54 56 52 50 40 32 24 19 18 17 16 13 11 8 6 6 7
57 60 62 65 67 69 71 69 65 62 66 70 59 60 63 44 31 27 24 22 22 20 17 14 10 8 6
64 66 66 63 61 63 65 65 67 64 58 75 68 62 63 53 44 41 38 31 28 26 24 23 19 14 10
69 66 62 57 53 47 32 29 37 59 72 81 82 72 77 72 63 56 49 41 40 38 33 27 24 20 13
69 63 57 48 30 16 14 20 27 44 70 84 87 86 77 78 77 65 62 59 47 46 39 26 24 24 18
65 57 45 27 14 14 17 20 28 44 57 74 84 89 86 84 78 75 68 63 62 58 50 35 27 26 21
64 57 35 16 12 19 20 21 30 44 56 72 79 79 78 77 83 78 76 68 65 66 58 46 28 30 28
67 57 28 14 13 21 26 31 39 52 63 76 82 83 71 59 67 81 75 77 79 69 62 54 43 29 33

GFSFLT2_700_rhum_132.txt.gz
RH
13 10 7 7 8 9 8 8 8 9 9 10 9 8 8 8 8 8 8 8 7 6 8 16 25 26 19
12 8 8 12 15 14 14 12 11 10 10 12 14 16 16 14 11 7 5 5 5 5 7 8 6 12 25
10 8 10 12 15 17 17 17 17 18 19 16 12 10 11 9 7 7 7 7 8 8 8 6 5 6 6
9 9 13 18 20 20 22 24 24 24 23 18 14 12 10 9 9 9 8 8 9 10 11 10 9 7 6
10 14 18 23 25 25 24 24 24 25 25 25 20 16 16 15 12 12 11 10 9 10 12 12 12 11 8
14 20 27 31 30 27 28 29 26 31 29 29 30 27 24 21 19 17 14 12 12 12 13 15 14 14 12
20 27 31 35 34 36 38 38 36 36 34 29 36 32 32 30 28 27 23 19 15 13 13 15 17 16 16
35 41 41 41 45 47 44 44 41 44 48 40 46 42 43 45 45 43 38 32 25 19 15 14 14 17 18
41 45 49 52 56 53 52 49 45 42 44 31 23 17 18 20 30 41 46 46 39 28 20 16 15 15 16
46 53 59 62 62 62 56 46 32 19 20 12 7 8 6 6 10 14 23 34 42 37 26 21 18 16 15
49 58 64 65 65 58 51 36 21 12 14 11 9 10 16 13 12 26 39 42 54 52 46 34 26 23 16
57 65 68 67 60 51 36 19 12 9 12 13 13 15 20 20 25 30 43 51 63 62 56 46 37 30 27
67 72 72 65 53 35 17 13 10 14 16 18 22 26 34 41 41 43 54 53 60 68 60 54 46 40 33
74 76 74 64 50 30 16 12 11 18 22 26 32 39 42 56 64 54 62 58 60 63 62 53 50 44 38
77 76 70 59 40 20 15 14 11 17 24 28 36 44 51 57 55 60 58 57 58 59 64 53 46 45 44
81 77 70 59 39 19 14 14 11 11 16 26 33 39 43 38 61 59 56 54 58 61 67 63 42 46 48
83 79 71 60 49 21 12 13 13 12 11 17 28 45 41 27 39 52 60 62 57 50 59 55 44 41 48

GFSFLT2_700_rhum_135.txt.gz
RH
33 27 21 17 12 9 8 11 12 12 12 11 11 10 10 10 10 9 10 11 11 10 9 8 7 7 9
37 29 21 15 9 9 11 12 12 12 12 13 13 14 15 15 14 12 9 7 5 5 5 5 6 5 5
42 32 23 14 10 12 16 19 20 18 18 16 17 19 19 17 12 8 6 6 6 6 7 7 8 9 9
44 35 22 13 11 14 20 25 25 27 28 28 28 26 24 21 18 12 8 6 6 6 6 7 8 8 9
44 33 18 11 13 21 24 25 25 27 28 32 32 33 32 31 29 27 24 19 13 10 8 8 8 8 9
44 28 15 15 21 27 32 29 24 36 33 34 34 33 34 36 38 39 37 32 28 25 20 15 11 9 9
49 25 16 24 32 33 35 35 37 42 38 34 36 32 28 20 13 11 11 16 25 36 40 35 25 19 13
49 19 24 40 42 41 40 46 46 49 45 33 21 11 8 6 6 5 5 5 5 5 8 20 38 40 30
40 18 34 46 52 50 54 54 50 46 36 15 12 8 6 6 7 8 8 9 8 8 7 10 16 28 38
27 21 41 52 59 62 62 58 53 36 21 15 11 8 7 8 9 10 12 15 16 15 14 14 15 18 25
18 27 44 58 64 68 67 60 48 22 21 17 12 9 10 9 10 11 13 15 19 28 33 32 28 33 23
15 32 47 63 69 70 67 57 36 19 18 15 10 12 12 11 12 14 15 17 22 31 42 45 43 44 48
20 37 55 67 72 72 65 53 28 18 17 13 13 15 17 16 16 18 18 21 29 36 44 46 44 49 46
30 42 66 75 76 74 63 48 23 18 16 14 13 14 14 16 19 19 26 26 33 40 40 40 43 48 48
36 59 74 78 77 72 64 47 24 14 14 15 13 13 14 15 18 23 29 30 40 43 44 35 36 44 48
51 74 78 79 76 72 61 40 25 16 12 15 16 16 17 22 36 45 41 39 46 48 44 38 26 30 38
71 80 83 83 77 71 55 37 26 20 16 17 17 19 23 44 76 75 82 82 56 47 48 43 33 28 35

GFSFLT2_700_rhum_138.txt.gz
RH
48 53 50 45 37 29 22 16 11 10 12 12 12 12 12 12 12 13 11 11 10 10 9 8 8 7 7
52 58 57 47 39 31 20 14 11 10 12 16 17 15 14 13 12 12 13 13 12 11 10 9 7 5 5
56 61 58 54 46 30 19 13 13 16 18 20 21 22 23 22 21 20 19 17 14 8 6 6 6 6 7
64 67 62 57 51 38 21 14 18 25 27 27 26 25 24 24 26 28 26 25 23 21 17 10 6 5 5
71 64 62 66 54 32 19 15 19 27 32 32 30 31 31 29 28 28 27 27 26 25 23 21 19 17 12
74 66 73 75 60 28 18 21 24 32 32 36 38 40 39 37 35 33 29 24 18 14 14 14 17 21 23
76 77 81 83 57 24 20 28 36 37 33 37 44 44 40 35 23 12 7 5 5 6 6 6 5 5 4
79 84 87 87 50 23 24 36 40 46 53 43 47 41 29 15 10 7 6 7 7 8 8 8 8 8 7
77 91 94 94 51 24 32 43 44 50 57 53 44 26 14 12 10 8 8 8 9 9 9 10 10 10 9
91 95 96 95 47 29 42 48 56 54 60 54 34 16 12 12 11 9 9 9 10 11 11 11 11 11 10
92 96 97 96 33 35 48 60 65 64 64 46 18 18 18 14 15 16 15 16 15 14 13 13 14 15 14
92 95 96 83 26 39 57 70 73 70 65 50 19 19 20 19 21 23 26 29 27 24 17 15 16 19 19
95 96 95 42 29 45 68 78 78 75 68 45 19 17 19 24 26 28 38 38 34 34 28 20 20 20 20
96 96 84 23 37 59 75 84 77 75 70 47 23 14 14 19 26 38 38 43 47 52 52 42 27 24 23
95 94 38 32 49 77 85 85 79 73 68 57 39 18 13 17 26 30 38 50 63 77 78 70 60 39 30
94 65 24 42 72 85 87 83 75 70 53 50 35 22 22 26 33 42 52 64 78 88 86 79 69 72 54
93 24 36 67 84 86 86 83 78 71 58 47 32 31 37 43 61 73 77 82 84 85 87 83 77 70 79